This is the latest recevied weather packets stored in our database for station/object NK7E-1. If no packets are shown the sender has not sent any weather packets the latest 10 day(s).
| Time | Temp. | Humidity | Pressure | Rain* | Wind** | Luminosity | Snow |
|---|---|---|---|---|---|---|---|
| 1778058600 | 15° C | 62% | 1015.2 hPa | 0 mm | - | - | - |
| 1778058001 | 15° C | 61% | 1015.2 hPa | 0 mm | - | - | - |
| 1778057400 | 15° C | 62% | 1015.2 hPa | 0 mm | - | - | - |
| 1778056801 | 15° C | 61% | 1015.2 hPa | 0 mm | - | - | - |
| 1778056200 | 14.44° C | 62% | 1015.2 hPa | 0 mm | - | - | - |
| 1778055601 | 14.44° C | 62% | 1015.3 hPa | 0 mm | - | - | - |
| 1778055001 | 15° C | 62% | 1015.4 hPa | 0 mm | - | - | - |
| 1778054402 | 15° C | 61% | 1015.4 hPa | 0 mm | - | - | - |
| 1778053802 | 15.56° C | 60% | 1015.5 hPa | 0 mm | - | - | - |
| 1778053201 | 15.56° C | 59% | 1015.4 hPa | 0 mm | - | - | - |
| 1778052601 | 15.56° C | 60% | 1015.5 hPa | 0 mm | - | - | - |
| 1778052001 | 15.56° C | 59% | 1015.4 hPa | 0 mm | - | - | - |
| 1778051401 | 15.56° C | 58% | 1015.2 hPa | 0 mm | - | - | - |
| 1778050801 | 15.56° C | 61% | 1015.2 hPa | 0 mm | - | - | - |
| 1778050201 | 15.56° C | 58% | 1015.2 hPa | 0 mm | - | - | - |
| 1778049601 | 15.56° C | 58% | 1015.2 hPa | 0 mm | - | - | - |
| 1778049001 | 16.11° C | 58% | 1015.1 hPa | 0 mm | - | - | - |
| 1778048401 | 16.11° C | 57% | 1015 hPa | 0 mm | - | - | - |
| 1778047801 | 16.11° C | 55% | 1015.1 hPa | 0 mm | - | - | - |
| 1778047201 | 16.67° C | 53% | 1015.1 hPa | 0 mm | - | - | - |
| 1778046601 | 16.67° C | 52% | 1015.1 hPa | 0 mm | - | - | - |
| 1778046001 | 17.22° C | 51% | 1015 hPa | 0 mm | - | - | - |
| 1778045401 | 17.22° C | 51% | 1014.9 hPa | 0 mm | - | - | - |
| 1778044801 | 17.22° C | 51% | 1014.9 hPa | 0 mm | - | - | - |
| 1778044201 | 17.78° C | 49% | 1014.6 hPa | 0 mm | - | - | - |
* Rain latest hour (hover to see other rain measurements)
** Current wind speed in m/s (hover to see current wind gust speed)